Location: Bastelaar
(51.0950°N, 3.8602°E)
Time: 16:38:25
(UTC+00:00)

YAOGAN 1 - Pass Details

Date: 18 November 2025
Orbit: 605 x 607 km, 97.8° (Epoch: 09 December)

Event Time Altitude Azimuth Distance (km) Brightness Sun altitude
Rises 16:43:45 0° 122° (ESE) 2,860 5.6 -8.1°
Reaches altitude 10° 16:46:26 10° 104° (ESE) 1,961 4.6 -8.4°
Maximum altitude 16:49:23 19° 60° (ENE) 1,476 3.9 -8.9°
Drops below altitude 10° 16:52:22 10° 15° (NNE) 1,970 4.8 -9.3°
Sets 16:55:03 0° 358° (N) 2,878 5.8 -9.7°
